TimeCST,TemperatureF,Dew PointF,Humidity,Sea Level PressureIn,VisibilityMPH,Wind Direction,Wind SpeedMPH,Gust SpeedMPH,PrecipitationIn,Events,Conditions,WindDirDegrees,DateUTC
12:53 AM,42.1,30.0,62,30.15,10.0,South,3.5,-,N/A,,Clear,190,2012-11-25 06:53:00
1:53 AM,37.9,30.0,73,30.13,10.0,South,5.8,-,N/A,,Clear,190,2012-11-25 07:53:00
2:53 AM,37.9,30.0,73,30.11,10.0,South,5.8,-,N/A,,Clear,180,2012-11-25 08:53:00
3:53 AM,37.9,30.9,76,30.10,10.0,South,5.8,-,N/A,,Clear,180,2012-11-25 09:53:00
4:53 AM,39.0,30.9,73,30.09,10.0,South,8.1,-,N/A,,Clear,170,2012-11-25 10:53:00
5:53 AM,39.9,30.9,70,30.09,10.0,South,9.2,-,N/A,,Clear,170,2012-11-25 11:53:00
6:53 AM,41.0,32.0,70,30.09,10.0,South,9.2,-,N/A,,Clear,170,2012-11-25 12:53:00
7:53 AM,43.0,33.1,68,30.10,10.0,South,8.1,-,N/A,,Clear,180,2012-11-25 13:53:00
8:53 AM,51.1,36.0,56,30.10,10.0,South,9.2,-,N/A,,Clear,180,2012-11-25 14:53:00
9:53 AM,55.9,37.9,51,30.10,10.0,South,12.7,-,N/A,,Clear,180,2012-11-25 15:53:00
10:53 AM,60.1,37.0,42,30.08,10.0,South,15.0,-,N/A,,Clear,190,2012-11-25 16:53:00
11:53 AM,64.9,37.9,37,30.05,10.0,South,11.5,-,N/A,,Clear,180,2012-11-25 17:53:00
12:53 PM,69.1,39.9,35,30.00,10.0,South,16.1,-,N/A,,Clear,170,2012-11-25 18:53:00
1:53 PM,71.1,45.0,39,29.96,10.0,SSW,13.8,-,N/A,,Clear,200,2012-11-25 19:53:00
2:53 PM,72.0,46.0,40,29.94,10.0,South,17.3,26.5,N/A,,Clear,180,2012-11-25 20:53:00
3:53 PM,71.1,46.0,41,29.93,10.0,South,15.0,-,N/A,,Clear,190,2012-11-25 21:53:00
4:53 PM,69.1,45.0,42,29.93,10.0,South,13.8,-,N/A,,Clear,190,2012-11-25 22:53:00
5:53 PM,64.9,46.9,52,29.93,10.0,South,10.4,-,N/A,,Clear,170,2012-11-25 23:53:00
6:53 PM,61.0,46.9,60,29.94,10.0,SSE,8.1,-,N/A,,Clear,160,2012-11-26 00:53:00
7:53 PM,62.1,48.0,60,29.93,10.0,SSE,10.4,-,N/A,,Clear,160,2012-11-26 01:53:00
8:53 PM,60.1,48.9,67,29.93,10.0,South,8.1,-,N/A,,Clear,170,2012-11-26 02:53:00
9:53 PM,60.1,51.1,72,29.95,10.0,South,6.9,-,N/A,,Clear,180,2012-11-26 03:53:00
10:53 PM,61.0,54.0,78,29.95,10.0,South,11.5,-,N/A,,Clear,180,2012-11-26 04:53:00
11:53 PM,60.1,55.0,83,29.95,10.0,South,10.4,-,N/A,,Clear,180,2012-11-26 05:53:00